カタログに戻る

KUPON

運用中通信GEO
NORAD 25045·PAYLOAD·🇷🇺 Russia

打ち上げ Nov 12, 1997 から Baikonur Cosmodrome

Loading…

TLE

最新Source: Space-Track

元期: Sep 13, 2026, 18:37 UTC

1 25045U 97070A   26256.77638462 -.00000173  00000-0  00000-0 0  9995
2 25045  14.5421 353.9428 0004391 304.2296  55.7486  1.00236151105530

AllMySatでKUPONをリアルタイム追跡

Download on the App Store